sat.trackr.live / text

‹ back to catalog

STARLINK-5998

NORAD 56468 · 2023-064W

PAYLOAD ACTIVE UNKNOWN

§ Identity

Operator
Country
US
Launch date
2023-05-10
Launch site
AFWTR
Launch vehicle
Mass (kg)
RCS (m²)

Purposes: comms

External: N2YO · Heavens-Above · Gunter

§ Orbital elements

Epoch: 2026-09-20T13:58:45.678432Z

Period
96.11 min
Inclination
70.0006°
Eccentricity
0.0003217
Mean motion
14.98331646 rev/d
Perigee alt
569.8 km
Apogee alt
574.3 km
Semi-major
6,950.2 km
B*
2.3118e-5
RAAN
12.8797°
Arg perigee
270.1620°
Mean anomaly
89.9170°
Rev number
18,444

§ Raw data

STARLINK-59981 56468U 23064W   26263.58247313  .00000183  00000+0  23118-4 0  99962 56468  70.0006  12.8797 0003217 270.1620  89.9170 14.98331646184449

JSON: /api/v1/satellites/56468 · /tle

For live sub-satellite position, see the globe view (requires WebGL).

§ Visibility from observer

Set your observer location to see the next 7 days of passes ≥ 10°. The values pass through the URL so the page stays shareable.

No JS? Fill the form by hand. The geolocation button needs JavaScript.